Юго-Западный административный округ

Россия / Московская область     55°39′45″N   37°34′34″E
В апреле 2022 года жителям России запретили посещать сайт meteo.paraplan.net по решению Генеральной прокуратуры. Аудитория сайта уменьшилась в 10 раз. Владельцы сайта не видят смысла в поддержке погодного сервера в таких условиях. Сайт будет закрыт в октябре.
темп.,
°C
ветер,
м/с
пор.,
м/с
влажн.,
%
обл.,
%
осадки,
мм/ч
давл.,
гПа
погр.,
м
25 сентября, вс
вс2500:00+8з2394100 1.5 996348
03:00+8юз2295100 3.5 997268
06:00+9зюз1196100 0.9 997225
09:00+8св3594100 2.2 998418
12:00+7всв4691100 0.5 1001518
15:00+8св2387100 0.6 1002468
18:00+8ссв2386100 0.1 1004399
21:00+8ссз2384100 0.1 1005323
26 сентября, пн
пн2600:00+8зсз2484100 0.3 1005282
03:00+8зсз258697 0.5 1006286
06:00+7зсз2588100 0.2 1007332
09:00+8з3679100 0.3 1008699
12:00+8зсз357899 0.1 1009616
15:00+10зсз456993 0.3 1009760
18:00+10з367499 0.4 1010579
21:00+8з368464 0.9 1012264
27 сентября, вт
вт2700:00+7зюз248919 0.0 1012123
03:00+6юз118966 0.0 101239
06:00+7ююз1185100 0.0 101352
09:00+8ююв2278100 0.0 1013206
12:00+11юв126775 0.0 1014651
15:00+13вюв225457 0.1 10131258
18:00+12вюв356055 0.1 1013286
21:00+9юв3772100 0.1 1014299
28 сентября, ср
ср2800:00+8вюв3979100 0.0 1014379
03:00+7в4108199 0.0 1013379
06:00+7в41282100 0.0 1012550
09:00+9в61471100 0.0 1011775
12:00+10в71368100 0.3 1010997
15:00+9в71484100 2.1 10091021
18:00+8в71491100 3.9 1009882
21:00+8в71491100 6.7 1008707
29 сентября, чт
чт2900:00+7в61392100 1.6 1008660
03:00+7всв61393100 4.8 1008589
06:00+6всв51393100 4.9 1008530
09:00+6всв41092100 6.6 1010537
12:00+6всв4891100 0.4 1012535
15:00+6всв4689100 0.6 1014474
18:00+5всв4690100 0.1 1017499
21:00+5в4789100 0.2 1019504